Location: Newark
(34.0131°N, 4.3314°W)
Time: 05:40:55
(UTC+00:00)

SR - Pass Details

Date: 16 October 2019
Orbit: 574 x 882 km, 66.7° (Epoch: 12 November)

Event Time Altitude Azimuth Distance (km) Brightness Sun altitude
Rises 08:42:16 0° 332° (NNW) 3,466 ? 26.0°
Reaches altitude 10° 08:44:45 10° 332° (NNW) 2,538 ? 26.4°
Maximum altitude 08:50:42 84° 246° (WSW) 888 ? 27.5°
Drops below altitude 10° 08:56:32 10° 158° (SSE) 2,487 ? 28.5°
Sets 08:58:57 0° 158° (SSE) 3,392 ? 28.9°
